TimeCST,TemperatureF,Dew PointF,Humidity,Sea Level PressureIn,VisibilityMPH,Wind Direction,Wind SpeedMPH,Gust SpeedMPH,PrecipitationIn,Events,Conditions,WindDirDegrees,DateUTC
12:53 AM,6.1,-0.0,76,30.23,10.0,ENE,4.6,-,N/A,,Clear,70,2012-12-27 06:53:00
1:53 AM,8.1,1.9,76,30.22,10.0,ENE,5.8,-,N/A,,Overcast,70,2012-12-27 07:53:00
2:53 AM,9.0,1.9,73,30.21,10.0,East,6.9,-,N/A,,Overcast,90,2012-12-27 08:53:00
3:53 AM,10.9,3.9,73,30.20,10.0,East,6.9,-,N/A,,Overcast,100,2012-12-27 09:53:00
4:53 AM,12.0,6.1,77,30.19,3.0,ESE,6.9,-,0.00,Snow,Light Snow,110,2012-12-27 10:53:00
5:53 AM,12.0,6.1,77,30.19,10.0,East,5.8,-,0.00,,Overcast,100,2012-12-27 11:53:00
6:49 AM,12.2,6.8,79,30.10,2.0,ESE,8.1,-,N/A,Snow,Light Snow,110,2012-12-27 12:49:00
6:53 AM,12.9,7.0,77,30.19,2.5,ESE,8.1,-,0.00,Snow,Light Snow,110,2012-12-27 12:53:00
7:01 AM,12.2,6.8,79,30.11,4.0,ESE,8.1,-,0.00,Snow,Light Snow,110,2012-12-27 13:01:00
7:53 AM,12.9,8.1,81,30.20,10.0,ESE,5.8,-,0.00,,Overcast,110,2012-12-27 13:53:00
8:53 AM,12.9,8.1,81,30.20,6.0,East,6.9,-,N/A,,Haze,100,2012-12-27 14:53:00
9:53 AM,14.0,9.0,80,30.21,5.0,East,5.8,-,0.00,Snow,Light Snow,100,2012-12-27 15:53:00
10:04 AM,14.0,8.6,79,30.12,1.8,East,6.9,-,0.00,Snow,Light Snow,90,2012-12-27 16:04:00
10:15 AM,14.0,8.6,79,30.12,2.0,East,6.9,-,0.00,Snow,Light Snow,90,2012-12-27 16:15:00
10:30 AM,14.0,8.6,79,30.13,3.0,East,6.9,-,0.01,Snow,Light Snow,100,2012-12-27 16:30:00
10:53 AM,14.0,9.0,80,30.20,7.0,East,6.9,-,0.01,Snow,Light Snow,90,2012-12-27 16:53:00
11:02 AM,14.0,8.6,79,30.11,1.8,East,8.1,-,0.00,Snow,Light Snow,80,2012-12-27 17:02:00
11:18 AM,15.8,10.4,79,30.10,2.0,East,8.1,-,0.00,Snow,Light Snow,90,2012-12-27 17:18:00
11:53 AM,15.1,10.0,80,30.18,2.5,ESE,5.8,-,0.00,Snow,Light Snow,110,2012-12-27 17:53:00
12:01 PM,15.8,10.4,79,30.09,3.0,ESE,4.6,-,0.00,Snow,Light Snow,120,2012-12-27 18:01:00
12:12 PM,15.8,10.4,79,30.09,2.0,ESE,4.6,-,0.00,Snow,Light Snow,110,2012-12-27 18:12:00
12:19 PM,15.8,10.4,79,30.08,1.8,East,3.5,-,0.00,Snow,Light Snow,100,2012-12-27 18:19:00
12:42 PM,15.8,10.4,79,30.08,2.0,ESE,3.5,-,0.00,Snow,Light Snow,120,2012-12-27 18:42:00
12:45 PM,15.8,10.4,79,30.08,1.8,SE,3.5,-,0.00,Snow,Light Snow,130,2012-12-27 18:45:00
12:53 PM,16.0,12.0,84,30.16,1.2,ESE,3.5,-,0.00,Snow,Light Snow,120,2012-12-27 18:53:00
1:03 PM,15.8,12.2,86,30.07,1.8,ESE,4.6,-,0.00,Snow,Light Snow,120,2012-12-27 19:03:00
1:09 PM,15.8,12.2,86,30.07,1.2,ESE,4.6,-,0.00,Snow,Light Snow,120,2012-12-27 19:09:00
1:19 PM,15.8,12.2,86,30.07,1.5,ESE,5.8,-,0.01,Snow,Light Snow,120,2012-12-27 19:19:00
1:27 PM,15.8,12.2,86,30.07,3.0,ESE,5.8,-,0.01,Snow,Light Snow,110,2012-12-27 19:27:00
1:39 PM,15.8,12.2,86,30.07,2.0,ESE,5.8,-,0.01,Snow,Light Snow,120,2012-12-27 19:39:00
1:53 PM,16.0,10.9,81,30.15,1.5,SE,4.6,-,0.01,Snow,Light Snow,130,2012-12-27 19:53:00
2:09 PM,15.8,12.2,86,30.06,2.0,ESE,4.6,-,0.00,Snow,Light Snow,120,2012-12-27 20:09:00
2:24 PM,15.8,12.2,86,30.06,3.0,ESE,4.6,-,0.00,,Overcast,110,2012-12-27 20:24:00
2:38 PM,15.8,12.2,86,30.06,1.8,East,5.8,-,0.00,Snow,Light Snow,100,2012-12-27 20:38:00
2:53 PM,17.1,12.0,81,30.14,2.0,East,6.9,-,0.01,Snow,Light Snow,90,2012-12-27 20:53:00
2:59 PM,17.6,12.2,79,30.06,3.0,East,4.6,-,0.00,Snow,Light Snow,80,2012-12-27 20:59:00
3:24 PM,15.8,10.4,79,30.06,3.0,East,4.6,-,0.00,Snow,Light Snow,80,2012-12-27 21:24:00
3:53 PM,12.9,9.0,84,30.14,6.0,East,4.6,-,0.00,,Overcast,80,2012-12-27 21:53:00
4:53 PM,12.0,8.1,84,30.15,3.0,NE,4.6,-,N/A,,Overcast,50,2012-12-27 22:53:00
5:05 PM,12.2,8.6,85,30.07,2.5,NE,5.8,-,0.00,Snow,Light Snow,50,2012-12-27 23:05:00
5:13 PM,12.2,8.6,85,30.07,4.0,NE,4.6,-,0.00,,Overcast,50,2012-12-27 23:13:00
5:53 PM,12.2,10.4,92,30.08,3.0,NE,5.8,-,N/A,Snow,Light Snow,40,2012-12-27 23:53:00
6:53 PM,12.9,9.0,84,30.16,4.0,ENE,4.6,-,0.00,,Overcast,60,2012-12-28 00:53:00
7:53 PM,12.0,8.1,84,30.17,3.0,NE,5.8,-,0.01,Snow,Light Snow,50,2012-12-28 01:53:00
8:53 PM,10.0,7.0,87,30.17,3.0,ENE,4.6,-,0.00,Snow,Light Snow,70,2012-12-28 02:53:00
9:53 PM,12.9,8.1,81,30.16,3.0,ENE,3.5,-,0.00,Snow,Light Snow,70,2012-12-28 03:53:00
10:31 PM,12.2,8.6,85,30.09,2.5,Calm,Calm,-,0.00,Snow,Light Snow,0,2012-12-28 04:31:00
10:53 PM,12.0,8.1,84,30.17,2.5,ENE,3.5,-,0.00,Snow,Light Snow,70,2012-12-28 04:53:00
11:08 PM,10.4,6.8,85,30.09,3.0,Calm,Calm,-,0.00,Snow,Light Snow,0,2012-12-28 05:08:00
11:33 PM,10.4,8.6,92,30.09,4.0,Calm,Calm,-,0.00,,Overcast,0,2012-12-28 05:33:00
11:53 PM,6.1,1.9,83,30.18,5.0,NNW,4.6,-,0.00,,Overcast,340,2012-12-28 05:53:00